Montgomery, NY

11:39 AM EDT on June 29, 2017 (GMT -0400)
Orange County

Weather History for KMGJ - February, 2013

Change the Weather History Date:

Wednesday, February 6, 2013

  Actual Average (KSWF) Record (KSWF)
Temperature  
Mean Temperature 27 °F -  
Max Temperature 37 °F 35 °F 42 °F (2016)
Min Temperature 17 °F 18 °F -4 °F (2015)
Degree Days  
Heating Degree Days 38    
Moisture  
Dew Point 17 °F    
Average Humidity 74    
Maximum Humidity 93    
Minimum Humidity 37    
Precipitation  
Precipitation 0.01 in - - ()
Sea Level Pressure  
Sea Level Pressure 30.03 in    
Wind  
Wind Speed 2 mph (WNW)    
Max Wind Speed 14 mph    
Max Gust Speed 26 mph    
Visibility 5 miles    
Events Fog , Snow    
Averages and records for this station are not official NWS values.
T = Trace of Precipitation, MM = Missing Value Source: NWS Daily Summary

Daily Weather History Graph

Daily Weather History Graph

Search for Another Location

Airport or City:

Trip Planner

Search our weather history database for the weather conditions in past years. The results will help you decide how hot, cold, wet, or windy it might be!

Date:

Astronomy

Feb. 06, 2013 Rise Set
Actual Time 7:03 AM EST 5:19 PM EST
Civil Twilight 6:34 AM EST 5:48 PM EST
Nautical Twilight 6:01 AM EST 6:21 PM EST
Astronomical Twilight 5:28 AM EST 6:53 PM EST
Moon 3:45 AM EST (2/6) 1:33 PM EST (2/6)
Length of Visible Light 11h 14m
Length of Day
10h 16m
Waning Crescent, 17% of the Moon is Illuminated
Feb 6
Waning Crescent
Feb 10
New
Feb 17
First Quarter
Feb 25
Full
Mar 4
Last Quarter

Hourly Weather History & Observations

Time (EST) Temp. Windchill Dew Point Humidity Pressure Visibility Wind Dir Wind Speed Gust Speed Precip Events Conditions
12:07 AM 26.6 °F - 23.0 °F 86% 29.90 in 3.0 mi Calm Calm - 0.00 in Snow Light Snow
12:54 AM 27.0 °F - 24.1 °F 89% 29.91 in 4.0 mi Calm Calm - 0.00 in   Overcast
1:26 AM 26.6 °F - 24.8 °F 93% 29.90 in 2.0 mi Calm Calm - N/A   Overcast
1:28 AM 26.6 °F - 24.8 °F 93% 29.90 in 1.8 mi Calm Calm - N/A   Overcast
1:41 AM 26.6 °F - 24.8 °F 93% 29.90 in 2.0 mi Calm Calm - N/A   Overcast
1:54 AM 27.0 °F - 24.1 °F 89% 29.91 in 4.0 mi Calm Calm - N/A   Overcast
2:41 AM 26.6 °F - 23.0 °F 86% 29.89 in 5.0 mi Calm Calm - N/A   Overcast
2:54 AM 26.1 °F - 23.0 °F 88% 29.90 in 4.0 mi Calm Calm - N/A   Overcast
3:19 AM 24.8 °F - 23.0 °F 93% 29.90 in 2.5 mi Calm Calm - N/A   Overcast
3:27 AM 24.8 °F - 23.0 °F 93% 29.90 in 2.0 mi Calm Calm - N/A   Overcast
3:37 AM 24.8 °F - 21.2 °F 86% 29.90 in 1.0 mi Calm Calm - N/A   Mist
3:41 AM 24.8 °F - 21.2 °F 86% 29.90 in 0.2 mi Calm Calm - N/A Fog Light Freezing Fog
3:54 AM 23.0 °F - 21.0 °F 92% 29.92 in 0.2 mi Calm Calm - N/A Fog Light Freezing Fog
4:54 AM 19.9 °F - 18.0 °F 92% 29.95 in 0.2 mi Calm Calm - N/A Fog Light Freezing Fog
5:42 AM 17.6 °F - 14.0 °F 86% 29.95 in 1.0 mi Calm Calm - N/A   Overcast
5:44 AM 17.6 °F - 14.0 °F 86% 29.95 in 2.5 mi Calm Calm - N/A   Overcast
5:49 AM 17.6 °F - 15.8 °F 93% 29.95 in 4.0 mi Calm Calm - N/A   Overcast
5:54 AM 19.0 °F - 16.0 °F 88% 29.97 in 2.5 mi Calm Calm - N/A   Overcast
6:07 AM 19.4 °F - 15.8 °F 86% 29.96 in 4.0 mi Calm Calm - N/A   Overcast
6:54 AM 18.0 °F - 15.1 °F 88% 29.99 in 3.0 mi Calm Calm - N/A   Partly Cloudy
7:07 AM 19.4 °F - 15.8 °F 86% 29.98 in 1.8 mi Calm Calm - N/A   Clear
7:29 AM 17.6 °F - 14.0 °F 86% 30.00 in 2.5 mi Calm Calm - N/A   Clear
7:37 AM 17.6 °F - 14.0 °F 86% 30.00 in 3.0 mi Calm Calm - N/A   Clear
7:44 AM 17.6 °F - 15.8 °F 93% 30.01 in 1.8 mi Calm Calm - N/A   Partly Cloudy
7:54 AM 19.9 °F - 18.0 °F 92% 30.04 in 2.0 mi Calm Calm - N/A   Mostly Cloudy
8:10 AM 21.2 °F 14.9 °F 17.6 °F 86% 30.02 in 3.0 mi SSW 4.6 mph - N/A   Mostly Cloudy
8:54 AM 28.0 °F 20.8 °F 24.1 °F 85% 30.04 in 8.0 mi WSW 6.9 mph - N/A   Overcast
9:54 AM 30.9 °F 24.3 °F 21.9 °F 69% 30.06 in 10.0 mi West 6.9 mph - N/A   Overcast
10:54 AM 34.0 °F 27.2 °F 23.0 °F 64% 30.07 in 10.0 mi West 8.1 mph 17.3 mph 0.01 in   Mostly Cloudy
11:54 AM 33.1 °F 25.5 °F 21.9 °F 64% 30.07 in 9.0 mi NW 9.2 mph - N/A   Overcast
12:54 PM 36.0 °F 28.5 °F 19.0 °F 50% 30.08 in 10.0 mi WNW 10.4 mph 17.3 mph N/A   Overcast
1:54 PM 34.0 °F 28.0 °F 18.0 °F 52% 30.09 in 10.0 mi WNW 6.9 mph - N/A   Overcast
2:54 PM 37.0 °F 29.8 °F 14.0 °F 39% 30.10 in 10.0 mi WNW 10.4 mph 26.5 mph N/A   Partly Cloudy
3:54 PM 36.0 °F 29.0 °F 12.0 °F 37% 30.14 in 10.0 mi NW 9.2 mph 19.6 mph N/A   Clear
4:54 PM 33.1 °F 23.4 °F 10.0 °F 38% 30.18 in 10.0 mi NW 13.8 mph 25.3 mph N/A   Clear
5:54 PM 30.9 °F 22.8 °F 9.0 °F 40% 30.22 in 10.0 mi NW 9.2 mph - N/A   Clear
6:54 PM 30.0 °F 23.2 °F 8.1 °F 40% 30.27 in 10.0 mi WNW 6.9 mph - N/A   Clear
7:54 PM 28.0 °F 18.6 °F 6.1 °F 39% 30.29 in 10.0 mi WNW 10.4 mph - N/A   Clear
8:54 PM 27.0 °F 19.5 °F 5.0 °F 39% 30.32 in 10.0 mi NW 6.9 mph - N/A   Clear
9:54 PM 25.0 °F 19.3 °F 3.9 °F 41% 30.34 in 10.0 mi NNW 4.6 mph - N/A   Clear
10:54 PM 24.1 °F 18.2 °F 1.0 °F 37% 30.35 in 10.0 mi NNE 4.6 mph - N/A   Clear
11:54 PM 21.0 °F 13.4 °F 5.0 °F 50% 30.35 in 10.0 mi WNW 5.8 mph - N/A   Clear